DW4360 Weather Reports


time (UTC)temp
F
wind
direction
speed
knots
gust
knots
rain 1hr
in
rain 24hr
in
rain mn
in
humidity
%
barometer
mb
20260510095741 58 332 0.0 0.0 0.00 0.00 0.00 79 1014.8
20260510094741 58 332 0.0 0.0 0.00 0.00 0.00 80 1014.8
20260510092739 58 332 0.0 0.0 0.00 0.00 0.00 78 1015.0
20260510091737 58 332 0.0 0.0 0.00 0.00 0.00 77 1015.0
20260510090736 59 332 0.0 0.0 0.00 0.00 0.00 76 1014.9
20260510085735 59 332 0.0 0.0 0.00 0.00 0.00 75 1014.8
20260510084735 60 332 0.0 0.0 0.00 0.00 0.00 75 1014.8
20260510083734 60 332 0.0 0.0 0.00 0.00 0.00 74 1014.5
20260510082732 60 332 0.0 0.0 0.00 0.00 0.00 73 1014.5
20260510080730 61 332 0.0 0.0 0.00 0.00 0.00 72 1014.4
20260510075729 61 332 0.0 0.0 0.00 0.00 0.00 71 1014.5
20260510074728 62 332 0.0 0.0 0.00 0.00 0.00 70 1014.5
20260510072727 62 332 0.0 0.0 0.00 0.00 0.00 68 1014.4
20260510071725 63 332 0.0 0.0 0.00 0.00 0.00 67 1014.4
20260510070725 64 332 0.0 0.0 0.00 0.00 0.00 65 1014.4
20260510064723 65 332 0.0 0.0 0.00 0.00 0.00 63 1014.3
20260510061719 66 332 0.0 0.0 0.00 0.00 0.00 58 1014.2
20260510060718 66 332 0.0 0.0 0.00 0.00 0.00 58 1014.2
20260510055717 67 333 3.5 0.0 0.00 0.00 0.00 57 1014.2
20260510054716 67 320 0.0 0.0 0.00 0.00 0.00 57 1014.1
20260510053715 68 320 0.0 0.0 0.00 0.00 0.00 56 1014.1
20260510052714 68 320 0.0 0.0 0.00 0.00 0.00 56 1014.0
20260510050712 68 326 2.6 0.0 0.00 0.00 0.00 55 1014.2
20260510045711 69 323 0.0 0.0 0.00 0.00 0.00 55 1014.1
20260510043709 69 319 1.7 0.0 0.00 0.00 0.00 55 1013.9
20260510042708 69 342 0.0 0.0 0.00 0.00 0.00 54 1013.8
20260510041707 70 336 0.9 0.0 0.00 0.00 0.00 54 1013.6
20260510040706 70 312 0.0 0.0 0.00 0.00 0.00 53 1013.5
20260510035705 70 315 0.0 0.0 0.00 0.00 0.00 52 1013.3
20260510034704 70 315 1.7 0.0 0.00 0.00 0.00 51 1013.2
20260510033703 71 323 7.0 0.0 0.00 0.00 0.00 50 1013.2
20260510032702 71 330 0.0 0.0 0.00 0.00 0.00 49 1013.2
20260510030700 72 321 0.0 0.0 0.00 0.00 0.00 47 1013.1
20260510024658 73 311 0.0 0.0 0.00 0.00 0.00 46 1013.1
20260510023657 74 319 0.0 0.0 0.00 0.00 0.00 45 1013.1
20260510021655 75 318 0.0 0.0 0.00 0.00 0.00 43 1013.2
20260510020654 75 320 3.5 0.0 0.00 0.00 0.00 41 1013.1
20260510015653 76 319 0.0 0.0 0.00 0.00 0.00 40 1013.1
20260510014652 76 330 0.0 0.0 0.00 0.00 0.00 36 1013.2
20260510013651 77 317 0.9 0.0 0.00 0.00 0.00 34 1013.3
20260510012650 78 314 2.6 0.0 0.00 0.00 0.00 35 1013.4
20260510011649 78 318 2.6 0.0 0.00 0.00 0.00 36 1013.5
20260510010648 79 323 2.6 0.0 0.00 0.00 0.00 33 1013.5
20260510005647 80 329 2.6 0.0 0.00 0.00 0.00 34 1013.5
20260510004646 80 297 0.0 0.0 0.00 0.00 0.00 30 1013.6
20260510003645 82 313 0.0 0.0 0.00 0.00 0.00 27 1013.6
20260510001643 84 320 2.6 0.0 0.00 0.00 0.00 24 1013.7
20260510000642 85 325 0.0 0.0 0.00 0.00 0.00 24 1013.6
20260509235641 85 13 0.0 0.0 0.00 0.00 0.00 24 1013.8
20260509234640 85 320 0.0 0.0 0.00 0.00 0.00 26 1013.9
20260509233639 84 322 0.0 0.0 0.00 0.00 0.00 27 1014.0
20260509232638 84 345 0.0 0.0 0.00 0.00 0.00 28 1014.0
20260509230636 83 342 0.0 0.0 0.00 0.00 0.00 30 1014.2
20260509225635 83 327 0.9 0.0 0.00 0.00 0.00 29 1014.6
20260509224633 83 325 0.0 0.0 0.00 0.00 0.00 28 1014.8
20260509223633 83 335 0.0 0.0 0.00 0.00 0.00 28 1014.9
20260509222632 82 9 0.0 0.0 0.00 0.00 0.00 30 1015.1
20260509221631 82 350 0.0 0.0 0.00 0.00 0.00 32 1015.4
20260509220629 82 328 0.0 0.0 0.00 0.00 0.00 32 1015.5
20260509215629 81 316 0.0 0.0 0.00 0.00 0.00 30 1015.7
20260509214627 80 317 0.9 0.0 0.00 0.00 0.00 32 1015.8
20260509213627 81 327 0.0 0.0 0.00 0.00 0.00 34 1015.9
20260509212625 80 333 0.0 0.0 0.00 0.00 0.00 34 1016.1
20260509211624 81 314 0.0 0.0 0.00 0.00 0.00 36 1016.1
20260509210624 80 344 4.3 0.0 0.00 0.00 0.00 39 1016.2
20260509205623 79 317 0.0 0.0 0.00 0.00 0.00 40 1016.1
20260509204621 78 329 0.0 0.0 0.00 0.00 0.00 43 1016.3
20260509202620 78 324 1.7 0.0 0.00 0.00 0.00 43 1016.5
20260509201619 77 320 0.0 0.0 0.00 0.00 0.00 44 1016.6
20260509200618 76 323 0.0 0.0 0.00 0.00 0.00 46 1016.9
20260509195616 75 336 0.0 0.0 0.00 0.00 0.00 47 1017.0
20260509193615 74 305 0.0 0.0 0.00 0.00 0.00 49 1017.2
20260509192613 74 347 0.0 0.0 0.00 0.00 0.00 49 1017.4
20260509191612 74 337 4.3 0.0 0.00 0.00 0.00 51 1017.5
20260509190612 73 320 0.0 0.0 0.00 0.00 0.00 53 1017.6
20260509185610 72 317 0.0 0.0 0.00 0.00 0.00 55 1017.8
20260509184609 72 320 0.0 0.0 0.00 0.00 0.00 55 1018.0
20260509183609 71 326 5.2 0.0 0.00 0.00 0.00 57 1018.1
20260509182607 70 78 0.0 0.0 0.00 0.00 0.00 58 1018.2
20260509181606 69 150 1.7 0.0 0.00 0.00 0.00 59 1018.3
20260509180605 67 314 0.0 0.0 0.00 0.00 0.00 63 1018.3
20260509175604 66 327 0.0 0.0 0.00 0.00 0.00 67 1018.3
20260509174603 65 348 0.0 0.0 0.00 0.00 0.00 68 1018.5
20260509173602 63 319 0.0 0.0 0.00 0.00 0.00 71 1018.6
20260509172601 61 322 0.0 0.0 0.00 0.00 0.00 73 1018.8
20260509171600 60 307 0.0 0.0 0.00 0.00 0.00 76 1019.1
20260509170559 59 165 0.0 0.0 0.00 0.00 0.00 77 1019.2
20260509165558 59 126 3.5 0.0 0.00 0.00 0.00 79 1019.3
20260509164557 58 323 0.0 0.0 0.00 0.00 0.00 80 1019.4
20260509163556 57 318 4.3 0.0 0.00 0.00 0.00 81 1019.5
20260509162555 57 325 0.0 0.0 0.00 0.00 0.00 81 1019.8
20260509161554 56 334 0.0 0.0 0.00 0.00 0.00 83 1019.9
20260509160553 56 323 0.0 0.0 0.00 0.00 0.00 85 1019.9
20260509153550 54 130 0.0 0.0 0.00 0.00 0.00 87 1020.0
20260509152549 54 313 0.0 0.0 0.00 0.00 0.00 88 1020.2
20260509151548 53 313 0.0 0.0 0.00 0.00 0.00 89 1020.3
20260509150547 53 313 0.0 0.0 0.00 0.00 0.00 89 1020.4
20260509145546 52 319 0.0 0.0 0.00 0.00 0.00 91 1020.4
20260509142543 51 350 0.0 0.0 0.00 0.00 0.00 93 1020.2
20260509141542 50 360 0.0 0.0 0.00 0.00 0.00 92 1020.3
20260509140541 50 360 0.0 0.0 0.00 0.00 0.00 92 1020.2
20260509135540 49 360 0.0 0.0 0.00 0.00 0.00 91 1020.2
20260509133538 49 360 0.0 0.0 0.00 0.00 0.00 91 1019.9
20260509132537 49 360 0.0 0.0 0.00 0.00 0.00 90 1020.0
20260509131536 49 360 0.0 0.0 0.00 0.00 0.00 90 1020.0
20260509130535 49 360 0.0 0.0 0.00 0.00 0.00 90 1020.0
20260509125534 49 360 0.0 0.0 0.00 0.00 0.00 89 1019.9
20260509122531 50 360 0.0 0.0 0.00 0.00 0.00 89 1020.2
20260509121529 50 360 0.0 0.0 0.00 0.00 0.00 88 1020.2
20260509120528 50 360 0.0 0.0 0.00 0.00 0.00 88 1020.0
20260509115527 51 360 0.0 0.0 0.00 0.00 0.00 88 1020.1
20260509114527 51 360 0.0 0.0 0.00 0.00 0.00 87 1020.2
20260509113526 51 360 0.0 0.0 0.00 0.00 0.00 87 1020.2
20260509111523 52 360 0.0 0.0 0.00 0.00 0.00 87 1020.4
20260509110522 52 360 0.0 0.0 0.00 0.00 0.00 87 1020.5
20260509105521 52 360 0.0 0.0 0.00 0.00 0.00 86 1020.6
20260509103519 53 360 0.0 0.0 0.00 0.00 0.00 85 1020.5
20260509102519 53 360 0.0 0.0 0.00 0.00 0.00 84 1020.5
20260509101518 53 360 0.0 0.0 0.00 0.00 0.00 84 1020.6
20260509100517 53 360 0.0 0.0 0.00 0.00 0.00 83 1020.6